This is the latest recevied weather packets stored in our database for station/object N9BID. If no packets are shown the sender has not sent any weather packets the latest 10 day(s).
| Time | Temp. | Humidity | Pressure | Rain* | Wind** | Luminosity | Snow |
|---|---|---|---|---|---|---|---|
| 1777693134 | 0.56° C | 81% | 1011.1 hPa | 0 mm | - | 0 W/m² | - |
| 1777692831 | 0.56° C | 84% | 1011.1 hPa | 0 mm | - | 0 W/m² | - |
| 1777692527 | 0.56° C | 84% | 1011 hPa | 0 mm | - | 0 W/m² | - |
| 1777692223 | 1.11° C | 81% | 1011 hPa | 0 mm | - | 0 W/m² | - |
| 1777691921 | 1.11° C | 73% | 1011 hPa | 0 mm | - | 0 W/m² | - |
| 1777691619 | 1.67° C | 72% | 1011.1 hPa | 0 mm | - | 0 W/m² | - |
| 1777691317 | 1.67° C | 69% | 1010.9 hPa | 0 mm | - | 0 W/m² | - |
| 1777691015 | 1.67° C | 68% | 1010.9 hPa | 0 mm | - | 0 W/m² | - |
| 1777690712 | 1.67° C | 67% | 1010.9 hPa | 0 mm | - | 0 W/m² | - |
| 1777690410 | 2.22° C | 67% | 1011 hPa | 0 mm | - | 0 W/m² | - |
| 1777690107 | 2.22° C | 67% | 1010.9 hPa | 0 mm | - | 0 W/m² | - |
| 1777689805 | 2.22° C | 67% | 1010.9 hPa | 0 mm | - | 0 W/m² | - |
| 1777689503 | 2.22° C | 66% | 1010.9 hPa | 0 mm | - | 0 W/m² | - |
| 1777689200 | 2.22° C | 66% | 1011 hPa | 0 mm | - | 0 W/m² | - |
| 1777688898 | 2.78° C | 63% | 1011 hPa | 0 mm | - | 0 W/m² | - |
| 1777688594 | 3.33° C | 59% | 1010.8 hPa | 0 mm | - | 0 W/m² | - |
| 1777688291 | 3.89° C | 57% | 1011.1 hPa | 0 mm | - | 0 W/m² | - |
| 1777687988 | 3.89° C | 57% | 1010.9 hPa | 0 mm | - | 0 W/m² | - |
| 1777687686 | 4.44° C | 56% | 1010.9 hPa | 0 mm | - | 0 W/m² | - |
| 1777687383 | 4.44° C | 55% | 1010.8 hPa | 0 mm | - | 0 W/m² | - |
| 1777687080 | 5° C | 54% | 1010.8 hPa | 0 mm | - | 0 W/m² | - |
| 1777686776 | 5° C | 53% | 1010.7 hPa | 0 mm | - | 0 W/m² | - |
| 1777686474 | 5° C | 52% | 1010.5 hPa | 0 mm | - | 0 W/m² | - |
| 1777686171 | 5° C | 51% | 1010.5 hPa | 0 mm | - | 0 W/m² | - |
| 1777685867 | 5.56° C | 51% | 1010.5 hPa | 0 mm | - | 0 W/m² | - |
* Rain latest hour (hover to see other rain measurements)
** Current wind speed in m/s (hover to see current wind gust speed)